www.pogodaiklimat.ru

Погода и климат >> Архив погоды >> Ливия >> Зувара


ПОГОДА в Зуваре

  • Прогноз погоды в Зуваре
  • Монитор погоды в Зуваре

АРХИВ ПОГОДЫ в Зуваре

Время (UTC), дата Ветер
(напр.,м/с)
 
Видим.   Явления Облачность Т
(С)
Тd
(С)
f
(%)
Тe
(С)
Тes
(С)
Комфортность P
(гПа)
Po
(гПа)
Тmin
(С)
Tmax
(С)
R
(мм)
R24
(мм)
S
(см)
03 13.07 штиль 0 8000 м ясно +25.4 +24.8 96 +36 +36 очень
душно
1014.4 1014.0
06 13.07 штиль 0 10 км ясно +25.0 +24.3 96 +35 +39 очень
душно
1014.6 1014.2 +24.0
09 13.07 штиль 0 10 км ясно +28.0 +25.2 85 +41 +63 опасность
перегрева
1015.1 1014.7
12 13.07 СВ 1 10 км ясно +30.5 +26.4 79 +47 +71 опасность
перегрева
1013.9 1013.5
15 13.07 СВ 4 10 км ясно +30.5 +24.9 72 +44 +49 опасность
перегрева
1013.2 1012.8
18 13.07 СВ 4 10 км ясно +29.0 +24.5 77 +41 +41 опасность
перегрева
1011.5 1011.1 +32.0
21 13.07 СВ 4 8000 м ясно +27.5 +26.1 92 +41 +41 опасность
перегрева
1012.2 1011.8
00 14.07 Ю 4 8000 м ясно +27.5 +19.2 61 +33 +33 очень
душно
1011.8 1011.4
06 14.07 Ю 4 10 км ясно +27.0 +15.7 50 +30 +32 душно 1009.3 1008.9 +25.5
09 14.07 Ю 2 10 км ясно +37.0 +16.0 29 +39 +56 опасность
солнечного
удара
1009.8 1009.4
12 14.07 СВ 6 10 км ясно +37.3 +23.8 46 +48 +56 опасность
перегрева
1008.8 1008.4
15 14.07 СВ 7 10 км ясно +33.0 +25.3 64 +47 +49 опасность
перегрева
1008.2 1007.8
18 14.07 СВ 6 10 км ясно +31.9 +22.5 58 +42 +42 опасность
перегрева
1006.7 1006.3 +40.0
21 14.07 В 5 10 км 5/0
[Ac trans]
+29.4 +24.3 74 +41 +41 опасность
перегрева
1006.8 1006.4
00 15.07 В 2 10 км 6/0
[Ac trans]
+31.4 +16.6 41 +35 +35 очень
душно
1003.7 1003.4
03 15.07 В 2 10 км 4/0
[Ac trans]
+30.4 +22.7 63 +40 +40 очень
душно
1007.4 1007.0
06 15.07 СЗ 7 10 км 5/0
[Ac trans]
+29.2 +23.4 71 +40 +40 очень
душно
1003.8 1003.4 +28.0
09 15.07 СЗ 8 10 км ясно +29.8 +23.6 69 +40 +44 очень
душно
1006.8 1006.4
00 16.07 СЗ 4 10 км ясно +28.2 +20.9 65 +35 +35 очень
душно
1009.5 1009.1
06 16.07 З 4 10 км ясно +25.3 +21.6 80 +32 +34 очень
душно
1012.1 1011.7 +25.0
09 16.07 СЗ 3 10 км ясно +28.5 +22.7 71 +38 +52 опасность
солнечного
удара
1011.7 1011.3
12 16.07 СЗ 4 10 км ясно +30.0 +20.6 57 +37 +50 очень
душно
1012.1 1011.7
18 16.07 СВ 3 10 км 3/0
[Ac cuf]
+29.0 +21.3 63 +37 +37 очень
душно
1010.9 1010.5 +32.5
21 16.07 СВ 5 8000 м ясно +27.5 +21.6 70 +35 +35 очень
душно
1012.4 1012.0
00 17.07 СЗ 4 8000 м ясно +26.5 +20.8 71 +33 +33 очень
душно
1014.5 1014.1
03 17.07 СЗ 5 8000 м ясно +26.0 +20.7 73 +33 +33 очень
душно
1013.6 1013.2
06 17.07 СЗ 2 10 км 3/3 750 м
[Cu med, cong]
+26.2 +20.8 72 +33 +35 очень
душно
1014.1 1013.7 +24.0
09 17.07 С 4 10 км 5/5 750 м
[Cu med, cong]
+28.0 +20.5 64 +35 +41 очень
душно
1014.3 1013.9
12 17.07 С 4 10 км 4/4 750 м
[Cu med, cong]
+29.0 +20.6 61 +36 +44 очень
душно
1014.7 1014.3
15 17.07 С 4 10 км ясно +28.8 +20.9 62 +36 +42 очень
душно
1013.7 1013.3
18 17.07 СВ 5 10 км ясно +27.0 +20.2 66 +33 +33 очень
душно
1013.4 1013.0 +30.5
21 17.07 В 4 10 км ясно +25.5 +19.3 69 +31 +31 очень
душно
1014.1 1013.7
00 18.07 штиль 0 10 км ясно +25.0 +19.3 71 +30 +30 душно 1013.6 1013.2
03 18.07 С 2 10 км ясно +24.5 +19.1 72 +29 +29 душно 1012.5 1012.1
06 18.07 ЮВ 4 10 км ясно +22.5 +18.6 79 +28 +30 душно 1013.1 1012.7 +22.0
12 18.07 СВ 7 10 км ясно +29.8 +19.4 54 +36 +42 очень
душно
1013.7 1013.3
15 18.07 СВ 8 10 км ясно +30.0 +21.1 59 +38 +39 очень
душно
1012.5
18 18.07 СВ 6 10 км 6/0
[Ac As]
+27.3 +20.0 64 +33 +33 очень
душно
1013.7 1013.3 +31.0
09 19.07 СВ 5 10 км ясно +29.0 +20.8 61 +36 +44 очень
душно
1015.7 1015.3
12 19.07 СВ 6 10 км ясно +29.6 +21.6 62 +38 +47 очень
душно
1016.0 1015.6
15 19.07 СВ 7 10 км ясно +29.2 +21.2 62 +37 +39 очень
душно
1015.6 1015.2
18 19.07 СВ 8 10 км ясно +27.5 +21.2 69 +35 +35 очень
душно
1015.8 1015.4 +30.5
21 19.07 В 8 8000 м ясно +26.5 +20.8 71 +33 +33 очень
душно
1016.7 1016.3
00 20.07 В 7 8000 м ясно +26.0 +21.1 74 +33 +33 очень
душно
1016.7 1016.3

 

Местоположение метеостанции Зувара (Ливия): широта 32.88 долгота 12.08 высота над уровнем моря 3 м.

В архиве по умолчанию представлена погода в Зуваре за последнюю неделю. Архивные данные за месяц целиком и за предыдущие месяцы, начиная с января 2011 года, Вы можете получить, выбрав интересующий диапазон дат из раскрывающегося списка и нажав кнопку "Ввод!".


*Определитесь, кто Вы:
робот инопланетянин человек

Внимание! Время в таблицах - всемирное. Для получения местного времени необходимо прибавить поправку, которая равна 1 ч.

Смотрите также архив погоды в соседних городах и на ближайших метеорологических станциях:

Погода в Триполи (Ливия) (96 км)
Погода в Яфране (Ливия) (99 км)
Погода в Гарьяне (Ливия) (118 км)
Погода в Татуине (Тунис) (152 км)
Погода в Налуте (Ливия) (153 км)
Погода в Меденине (Тунис) (158 км)
Погода в Аэропорту Джерба-Зарзис (Тунис) (164 км)
Погода в Ремаде (Тунис) (169 км)
Погода в Эль-Хомсе (Ливия) (210 км)
Погода в Габесе (Тунис) (222 км)

Пояснения к столбцам:

Ветер - указаны скорость ветра в м/с - средняя за 10 мин, порывы в срок и между сроками (в фигурных скобках) и направление, откуда дует ветер: С - северный, СВ - северо-восточный, В - восточный, ЮВ - юго-восточный, Ю - южный, ЮЗ - юго-западный, З - западный, СЗ - северо-западный.
Видимость - горизонтальная дальность видимости в метрах или километрах. При видимости от 1 до 10 км при отсутствии осадков обычно наблюдается дымка, при ухудшении видимости до 1 км и менее - туман. В сухую погоду видимость может ухудшаться дымом, пылью или мглою.
Явления - указаны атмосферные явления, наблюдавшиеся в срок или в последний час перед сроком; фигурными скобками обозначены явления, наблюдавшиеся между сроками (за 1-3 часа до срока); квадратными скобками обозначены град или гололедные отложения с указанием их диаметра в мм.
Облачность - указаны через наклонную черту общая и нижняя облачность в баллах и высота нижней границы облаков в метрах; квадратными скобками обозначены формы облаков: Ci - перистые, Cs - перисто-слоистые, Cc - перисто-кучевые, Ac - высококучевые, As - высокослоистые, Sc - слоисто-кучевые, Ns - слоисто-дождевые, Cu - кучевые, Cb - кучево-дождевые. Подробнее классификацию облаков см. в Атласе облаков (PDF).
T - Температура воздуха - температура, измеренная на высоте 2 м над землей.
Td - Температура точки росы - температура, при понижении до которой содержащийся в воздухе водяной пар достигнет насыщения.
f - Относительная влажность воздуха - влажноcть воздуха, измеренная на высоте 2 м над землей.
Te - Эффективная температура - температура, которую ощущает одетый по сезону человек в тени. Характеристика душности погоды. При расчете учитывается влияние влажности воздуха и скорости ветра на теплоощущения человека.
Tes - Эффективная температура на солнце - температура, которую ощущает человек, с поправкой на солнечный нагрев. Характеристика знойности погоды. Зависит от высоты солнца над горизонтом, облачности и скорости ветра. Ночью, в пасмурную погоду, а также при ветре 12 м/с и более поправка равна нулю.
P - Атмосферное давление - приведенное к уровню моря атмосферное давление.
Po - Атмосферное давление - измеренное на уровне метеостанции атмосферное давление.
Tmin - Минимальная температура - минимум температуры воздуха на высоте 2 м над землей.
Tmax - Максимальная температура - максимум температуры воздуха на высоте 2 м над землей.
R - Количество осадков - Количество выпавших осадков за период времени, мм. При наведении курсора мыши на число - период времени, за который выпало указанное количество осадков.
R24 - Количество осадков - Количество выпавших осадков за 24 часа, мм.
S - Снежный покров - Высота снежного покрова, см. При наведении курсора мыши на число - состояние снежного покрова и степень покрытия местности в баллах.